Regional Weather Roundup
Issued by NWS Little Rock, AR

Home | Current Version | Previous Version | Graphics & Text | Print | Product List | Glossary On
Versions: 1 2 3 4 5 6 7 8 9 10 11 12 13 14 15 16 17 18 19 20 21 22 23 24 25 26 27 28 29 30 31 32
000
ASUS44 KLZK 160505
RWRLZK

WEATHER ROUNDUP FOR ARKANSAS
NATIONAL WEATHER SERVICE LITTLE ROCK AR
1100 PM CST FRI DEC 15 2017

NOTE: "FAIR" INDICATES FEW OR NO CLOUDS BELOW 12,000 FEET WITH NO
SIGNIFICANT WEATHER AND/OR OBSTRUCTIONS TO VISIBILITY.

ARZ001-003-010-029-160600-
NORTHWEST ARKANSAS

CITY           SKY/WX    TMP DP  RH WIND       PRES   REMARKS
FAYETTEVILLE   CLEAR     26  24  92 CALM      30.13S
FORT SMITH     CLOUDY    32  26  78 CALM      30.16S
HARRISON       CLEAR     36  26  67 S5        30.12R
BENTONVILLE    CLEAR     32  25  75 S5        30.13S WCI  27
ROGERS         CLEAR     34  26  72 S9        30.12S WCI  27
SILOAM SPGS    CLOUDY    33  26  75 S9        30.13R WCI  25
HIGHFILL       CLEAR     32  25  75 S3        30.12R
$$

ARZ004-005-016-160600-
NORTH CENTRAL ARKANSAS

CITY           SKY/WX    TMP DP  RH WIND       PRES   REMARKS
BATESVILLE     CLEAR     40  29  64 S3        30.17R
FLIPPIN        CLEAR     34  25  69 CALM      30.14S
$$

ARZ040-041-160600-
WEST CENTRAL ARKANSAS

CITY           SKY/WX    TMP DP  RH WIND       PRES   REMARKS
MENA           CLOUDY    30  30 100 CALM      30.18R
MOUNT IDA      CLEAR     30  26  85 CALM      30.16R
$$

ARZ009-017-025-026-028-160600-
NORTHEAST ARKANSAS

CITY           SKY/WX    TMP DP  RH WIND       PRES   REMARKS
JONESBORO      CLEAR     38  30  73 SW9       30.17R
NEWPORT        CLEAR     33  29  85 S9        30.18R WCI  25
WALNUT RIDGE   CLEAR     32  28  85 S9        30.16R WCI  24
BLYTHEVILLE    CLEAR     35  29  78 S7        30.18R WCI  29
$$

ARZ022-023-033-042-044-160600-
CENTRAL ARKANSAS

CITY           SKY/WX    TMP DP  RH WIND       PRES   REMARKS
LITTLE ROCK    CLEAR     36  30  79 S7        30.19F
N LITTLE ROCK    N/A     38  30  73 S3        30.21F
JACKSONVILLE   CLEAR     29  24  83 CALM      30.16F
SEARCY         CLEAR     29  28  96 CALM      30.18S
HOT SPRINGS    CLEAR     36  30  79 CALM      30.19S
RUSSELLVILLE   CLEAR     36  29  75 S5        30.16S
CLINTON        FAIR      27  25  93 CALM      30.17R
$$

ARZ036-160600-
EAST ARKANSAS

CITY           SKY/WX    TMP DP  RH WIND       PRES   REMARKS
WEST MEMPHIS   CLEAR     36  29  75 S8        30.19F
$$

ARZ050-053-066-070-073-160600-
SOUTHWEST ARKANSAS

CITY           SKY/WX    TMP DP  RH WIND       PRES   REMARKS
ARKADELPHIA    FAIR      26  23  88 CALM      30.22S
CAMDEN         CLOUDY    32  28  86 CALM      30.23S
TEXARKANA      CLOUDY    37  30  75 SW3       30.23R
EL DORADO      CLOUDY    31  30  96 CALM      30.24S
DE QUEEN       CLEAR     27  26  96 CALM      30.20S
$$

ARZ056-057-069-160600-
SOUTHEAST ARKANSAS

CITY           SKY/WX    TMP DP  RH WIND       PRES   REMARKS
PINE BLUFF     PTCLDY    35  27  72 S7        30.22S WCI  29
STUTTGART      CLEAR     36  30  79 SW10      30.20F
MONTICELLO     CLOUDY    39  27  62 S5        30.24R

$$






USA.gov is the U.S. government's official web portal to all federal, state and local government web resources and services.